FW3788 Weather Reports


Display with metric or nautical units.
time (UTC)temp
F
wind
direction
speed
MPH
gust
MPH
rain 1hr
in
rain 24hr
in
rain mn
in
humidity
%
barometer
mb
20260831055008 58 315 0.0 0.0 0.00 0.00 0.00 43 1009.5
20260831054513 59 315 0.0 0.0 0.00 0.00 0.00 43 1009.5
20260831054010 59 315 0.0 0.0 0.00 0.00 0.00 42 1009.5
20260831053508 59 315 0.0 0.0 0.00 0.00 0.00 43 1009.4
20260831053008 59 315 0.0 0.0 0.00 0.00 0.00 42 1009.5
20260831052509 59 315 0.0 0.0 0.00 0.00 0.00 40 1009.5
20260831052107 59 315 0.0 0.0 0.00 0.00 0.00 42 1009.5
20260831051507 59 315 0.0 0.0 0.00 0.00 0.00 42 1009.7
20260831051107 59 315 0.0 0.0 0.00 0.00 0.00 43 1009.6
20260831050508 61 315 0.0 0.0 0.00 0.00 0.00 40 1009.7
20260831050108 60 315 0.0 0.0 0.00 0.00 0.00 39 1009.7
20260831045508 60 315 0.0 0.0 0.00 0.00 0.00 43 1009.7
20260831045008 61 315 0.0 0.0 0.00 0.00 0.00 38 1009.7
20260831044508 61 315 0.0 0.0 0.00 0.00 0.00 39 1009.7
20260831044008 61 315 0.0 0.0 0.00 0.00 0.00 40 1009.7
20260831043508 62 315 0.0 0.0 0.00 0.00 0.00 37 1009.6
20260831043007 62 315 0.0 0.0 0.00 0.00 0.00 38 1009.6
20260831042507 62 315 0.0 0.0 0.00 0.00 0.00 38 1009.6
20260831042007 62 315 0.0 0.0 0.00 0.00 0.00 38 1009.6
20260831041508 62 315 0.0 0.0 0.00 0.00 0.00 38 1009.4
20260831041010 62 315 0.0 0.0 0.00 0.00 0.00 40 1009.4
20260831040509 62 315 0.0 0.0 0.00 0.00 0.00 40 1009.4
20260831040008 62 315 0.0 0.0 0.00 0.00 0.00 41 1009.3
20260831035508 63 315 0.0 0.0 0.00 0.00 0.00 40 1009.3
20260831035008 64 315 0.0 0.0 0.00 0.00 0.00 38 1009.2
20260831034507 65 315 0.0 0.0 0.00 0.00 0.00 36 1009.3
20260831034008 65 315 0.0 0.0 0.00 0.00 0.00 37 1009.2
20260831033508 65 315 0.0 5.0 0.00 0.00 0.00 38 1009.1
20260831033110 65 315 0.0 5.0 0.00 0.00 0.00 39 1009.1
20260831032508 66 316 0.0 0.0 0.00 0.00 0.00 36 1009.0
20260831032008 67 316 0.0 0.0 0.00 0.00 0.00 35 1008.9
20260831031510 68 316 0.0 0.0 0.00 0.00 0.00 36 1008.8
20260831031007 68 316 0.0 0.0 0.00 0.00 0.00 38 1008.8
20260831030507 68 316 0.0 0.0 0.00 0.00 0.00 37 1008.7
20260831030010 69 316 0.0 0.0 0.00 0.00 0.00 37 1008.7
20260831025508 69 316 0.0 0.0 0.00 0.00 0.00 37 1008.6
20260831025011 69 316 0.0 1.0 0.00 0.00 0.00 36 1008.6
20260831024508 70 316 0.0 4.0 0.00 0.00 0.00 36 1008.5
20260831024008 70 316 0.0 6.0 0.00 0.00 0.00 36 1008.5
20260831023507 70 316 1.0 6.0 0.00 0.00 0.00 35 1008.4
20260831023009 71 315 1.0 5.0 0.00 0.00 0.00 35 1008.4
20260831022507 71 315 0.0 5.0 0.00 0.00 0.00 34 1008.4
20260831022008 72 314 2.0 6.0 0.00 0.00 0.00 34 1008.4
20260831021513 72 314 4.0 6.0 0.00 0.00 0.00 34 1008.3
20260831021009 72 302 1.0 5.0 0.00 0.00 0.00 33 1008.3
20260831020508 73 301 0.0 4.0 0.00 0.00 0.00 32 1008.3
20260831020008 73 301 0.0 4.0 0.00 0.00 0.00 32 1008.4
20260831015508 74 301 1.0 4.0 0.00 0.00 0.00 31 1008.4
20260831015008 75 301 0.0 6.0 0.00 0.00 0.00 30 1008.4
20260831014511 75 301 1.0 6.0 0.00 0.00 0.00 29 1008.4
20260831014008 76 301 0.0 5.0 0.00 0.00 0.00 28 1008.4
20260831013508 76 299 0.0 5.0 0.00 0.00 0.00 28 1008.3
20260831013008 77 299 0.0 5.0 0.00 0.00 0.00 28 1008.4
20260831012508 77 300 1.0 5.0 0.00 0.00 0.00 27 1008.4
20260831012009 78 299 1.0 5.0 0.00 0.00 0.00 26 1008.4
20260831011519 79 295 0.0 1.0 0.00 0.00 0.00 26 1008.4
20260831011007 80 295 0.0 6.0 0.00 0.00 0.00 25 1008.4
20260831010508 80 295 0.0 6.0 0.00 0.00 0.00 21 1008.4
20260831010008 80 292 0.0 6.0 0.00 0.00 0.00 24 1008.3
20260831005508 81 296 1.0 6.0 0.00 0.00 0.00 23 1008.2
20260831005008 82 293 0.0 0.0 0.00 0.00 0.00 22 1008.3
20260831004508 82 293 0.0 5.0 0.00 0.00 0.00 22 1008.3
20260831004009 82 293 1.0 5.0 0.00 0.00 0.00 22 1008.3
20260831003512 83 239 0.0 6.0 0.00 0.00 0.00 14 1008.4
20260831003012 82 184 1.0 7.0 0.00 0.00 0.00 15 1008.3
20260831002509 82 191 4.0 7.0 0.00 0.00 0.00 14 1008.3
20260831002007 83 187 4.0 8.0 0.00 0.00 0.00 14 1008.3
20260831001508 83 170 1.0 7.0 0.00 0.00 0.00 14 1008.3
20260831001008 83 162 5.0 8.0 0.00 0.00 0.00 13 1008.2
20260831000509 83 166 3.0 9.0 0.00 0.00 0.00 14 1008.3
20260831000008 83 171 5.0 10.0 0.00 0.00 0.00 14 1008.3
20260830235508 83 170 6.0 11.0 0.00 0.00 0.00 13 1008.3
20260830235009 83 176 7.0 13.0 0.00 0.00 0.00 13 1008.3
20260830234518 83 168 6.0 14.0 0.00 0.00 0.00 14 1008.3
20260830234008 84 152 5.0 12.0 0.00 0.00 0.00 13 1008.3
20260830233508 83 156 5.0 12.0 0.00 0.00 0.00 13 1008.3
20260830233010 84 166 5.0 14.0 0.00 0.00 0.00 13 1008.3
20260830232508 83 172 9.0 14.0 0.00 0.00 0.00 13 1008.4
20260830232009 84 164 6.0 14.0 0.00 0.00 0.00 12 1008.3
20260830231510 84 202 6.0 14.0 0.00 0.00 0.00 13 1008.3
20260830231008 84 185 8.0 12.0 0.00 0.00 0.00 12 1008.4
20260830230510 84 183 5.0 13.0 0.00 0.00 0.00 12 1008.5
20260830230008 84 166 6.0 14.0 0.00 0.00 0.00 13 1008.5
20260830225508 84 177 9.0 14.0 0.00 0.00 0.00 12 1008.5
20260830225008 84 166 7.0 13.0 0.00 0.00 0.00 13 1008.5
20260830224508 84 172 4.0 14.0 0.00 0.00 0.00 13 1008.6
20260830224008 84 187 8.0 14.0 0.00 0.00 0.00 13 1008.6
20260830223508 85 185 7.0 11.0 0.00 0.00 0.00 13 1008.6
20260830223008 85 184 7.0 11.0 0.00 0.00 0.00 14 1008.7
20260830222508 85 181 7.0 16.0 0.00 0.00 0.00 13 1008.7
20260830222008 85 192 6.0 16.0 0.00 0.00 0.00 13 1008.8
20260830221508 85 161 5.0 9.0 0.00 0.00 0.00 12 1008.9
20260830221009 84 177 5.0 13.0 0.00 0.00 0.00 13 1009.0
20260830220508 84 177 7.0 13.0 0.00 0.00 0.00 13 1009.1
20260830220008 84 199 4.0 14.0 0.00 0.00 0.00 13 1009.2
20260830215510 84 168 6.0 16.0 0.00 0.00 0.00 13 1009.2
20260830215013 84 204 4.0 16.0 0.00 0.00 0.00 13 1009.2
20260830214509 84 172 9.0 14.0 0.00 0.00 0.00 13 1009.3
20260830214007 84 163 6.0 14.0 0.00 0.00 0.00 12 1009.3
20260830213513 85 171 3.0 11.0 0.00 0.00 0.00 12 1009.3
20260830213008 84 180 6.0 13.0 0.00 0.00 0.00 12 1009.4
20260830212508 84 175 8.0 13.0 0.00 0.00 0.00 12 1009.4
20260830212009 84 166 8.0 13.0 0.00 0.00 0.00 12 1009.4
20260830211508 84 160 7.0 12.0 0.00 0.00 0.00 11 1009.5
20260830211009 84 171 8.0 13.0 0.00 0.00 0.00 12 1009.5
20260830210508 84 185 7.0 13.0 0.00 0.00 0.00 12 1009.6
20260830210010 84 176 6.0 15.0 0.00 0.00 0.00 12 1009.6
20260830205511 83 158 8.0 15.0 0.00 0.00 0.00 12 1009.7
20260830205008 83 158 7.0 15.0 0.00 0.00 0.00 13 1009.7
20260830204525 83 181 11.0 15.0 0.00 0.00 0.00 13 1009.7
20260830204008 84 193 3.0 14.0 0.00 0.00 0.00 13 1009.8
20260830203508 84 190 4.0 14.0 0.00 0.00 0.00 13 1009.8
20260830203009 83 164 8.0 14.0 0.00 0.00 0.00 14 1009.8
20260830202508 83 176 8.0 14.0 0.00 0.00 0.00 13 1009.9
20260830202008 83 167 9.0 15.0 0.00 0.00 0.00 13 1009.9
20260830201513 82 161 7.0 15.0 0.00 0.00 0.00 14 1009.9
20260830201008 83 185 8.0 16.0 0.00 0.00 0.00 14 1010.0
20260830200510 82 197 7.0 16.0 0.00 0.00 0.00 15 1010.0
20260830200008 82 178 9.0 15.0 0.00 0.00 0.00 14 1009.9
20260830195509 83 160 8.0 14.0 0.00 0.00 0.00 15 1010.0
20260830195008 83 158 10.0 14.0 0.00 0.00 0.00 14 1010.0
20260830194508 84 170 5.0 12.0 0.00 0.00 0.00 14 1010.1
20260830194008 83 166 6.0 13.0 0.00 0.00 0.00 13 1010.1
20260830193509 84 186 4.0 10.0 0.00 0.00 0.00 13 1010.2
20260830193008 83 345 1.0 9.0 0.00 0.00 0.00 11 1010.2
20260830192508 83 19 4.0 9.0 0.00 0.00 0.00 11 1010.2
20260830192008 82 299 0.0 8.0 0.00 0.00 0.00 11 1010.2
20260830191508 82 328 2.0 8.0 0.00 0.00 0.00 11 1010.2
20260830191013 82 315 3.0 11.0 0.00 0.00 0.00 11 1010.2
20260830190508 83 8 5.0 11.0 0.00 0.00 0.00 11 1010.3
20260830190009 82 339 3.0 9.0 0.00 0.00 0.00 11 1010.3
20260830185508 82 290 6.0 9.0 0.00 0.00 0.00 11 1010.3
20260830185009 82 52 2.0 9.0 0.00 0.00 0.00 11 1010.4
20260830184508 81 312 0.0 8.0 0.00 0.00 0.00 11 1010.4
20260830184009 81 359 1.0 8.0 0.00 0.00 0.00 11 1010.5
20260830183508 81 14 0.0 8.0 0.00 0.00 0.00 11 1010.5
20260830183008 81 17 1.0 8.0 0.00 0.00 0.00 10 1010.5
20260830182510 81 342 1.0 9.0 0.00 0.00 0.00 11 1010.6
20260830182009 81 341 5.0 9.0 0.00 0.00 0.00 10 1010.6
20260830181508 81 328 2.0 8.0 0.00 0.00 0.00 10 1010.6
20260830181007 81 322 3.0 7.0 0.00 0.00 0.00 9 1010.5
20260830180510 80 31 1.0 10.0 0.00 0.00 0.00 9 1010.6
20260830180008 80 295 3.0 10.0 0.00 0.00 0.00 9 1010.6
20260830175509 79 291 2.0 9.0 0.00 0.00 0.00 8 1010.6
20260830175009 80 318 2.0 8.0 0.00 0.00 0.00 8 1010.6
20260830174509 80 290 3.0 8.0 0.00 0.00 0.00 8 1010.6
20260830174009 79 309 3.0 9.0 0.00 0.00 0.00 7 1010.5
20260830173512 79 320 3.0 9.0 0.00 0.00 0.00 7 1010.6
20260830173008 79 308 4.0 8.0 0.00 0.00 0.00 7 1010.6
20260830172508 79 306 1.0 5.0 0.00 0.00 0.00 8 1010.6
20260830172011 78 308 1.0 5.0 0.00 0.00 0.00 9 1010.5
20260830171509 78 300 0.0 5.0 0.00 0.00 0.00 10 1010.5
20260830171009 77 172 0.0 0.0 0.00 0.00 0.00 11 1010.5
20260830170510 76 172 0.0 0.0 0.00 0.00 0.00 12 1010.5
20260830170008 76 172 0.0 0.0 0.00 0.00 0.00 14 1010.5
20260830165508 75 172 0.0 0.0 0.00 0.00 0.00 14 1010.4
20260830165109 74 172 0.0 0.0 0.00 0.00 0.00 15 1010.4
20260830164514 74 172 0.0 0.0 0.00 0.00 0.00 17 1010.5
20260830164008 73 172 0.0 0.0 0.00 0.00 0.00 17 1010.6
20260830163509 72 172 0.0 0.0 0.00 0.00 0.00 19 1010.6
20260830163008 72 172 0.0 0.0 0.00 0.00 0.00 20 1010.6
20260830162509 71 171 0.0 0.0 0.00 0.00 0.00 21 1010.6
20260830161508 69 170 0.0 0.0 0.00 0.00 0.00 22 1010.6
20260830161011 68 170 0.0 0.0 0.00 0.00 0.00 23 1010.6
20260830160508 67 170 0.0 0.0 0.00 0.00 0.00 24 1010.6
20260830160010 67 171 0.0 0.0 0.00 0.00 0.00 25 1010.7
20260830155508 67 170 0.0 0.0 0.00 0.00 0.00 26 1010.6
20260830155009 66 170 0.0 0.0 0.00 0.00 0.00 26 1010.7
20260830154511 65 170 0.0 0.0 0.00 0.00 0.00 26 1010.7
20260830154009 64 170 0.0 0.0 0.00 0.00 0.00 27 1010.7
20260830153508 64 170 0.0 0.0 0.00 0.00 0.00 29 1010.7
20260830153023 63 170 0.0 0.0 0.00 0.00 0.00 29 1010.7
20260830152509 63 170 0.0 0.0 0.00 0.00 0.00 30 1010.8
20260830152009 63 170 0.0 0.0 0.00 0.00 0.00 27 1010.8
20260830151526 62 170 0.0 0.0 0.00 0.00 0.00 28 1010.8
20260830151008 60 170 0.0 0.0 0.00 0.00 0.00 29 1010.8
20260830150509 59 170 0.0 0.0 0.00 0.00 0.00 30 1010.7
20260830150009 58 170 0.0 0.0 0.00 0.00 0.00 31 1010.8
20260830145511 57 170 0.0 0.0 0.00 0.00 0.00 34 1010.7
20260830145008 57 170 0.0 0.0 0.00 0.00 0.00 33 1010.8
20260830144508 56 170 0.0 0.0 0.00 0.00 0.00 33 1010.7
20260830144008 56 170 0.0 0.0 0.00 0.00 0.00 33 1010.8
20260830143509 55 170 0.0 0.0 0.00 0.00 0.00 35 1010.8
20260830143009 55 170 0.0 0.0 0.00 0.00 0.00 35 1010.8
20260830142509 54 170 0.0 0.0 0.00 0.00 0.00 35 1010.7
20260830142109 54 170 0.0 0.0 0.00 0.00 0.00 36 1010.7
20260830141509 54 170 0.0 0.0 0.00 0.00 0.00 36 1010.7
20260830141008 54 170 0.0 0.0 0.00 0.00 0.00 36 1010.6
20260830140608 54 170 0.0 0.0 0.00 0.00 0.00 36 1010.6
20260830135509 54 170 0.0 0.0 0.00 0.00 0.00 34 1010.5
20260830135008 55 170 0.0 0.0 0.00 0.00 0.00 34 1010.5
20260830134614 55 170 0.0 0.0 0.00 0.00 0.00 33 1010.4
20260830133508 54 170 0.0 0.0 0.00 0.00 0.00 34 1010.3
20260830133009 54 170 0.0 0.0 0.00 0.00 0.00 34 1010.4
20260830132508 54 170 0.0 0.0 0.00 0.00 0.00 34 1010.4
20260830132010 54 170 0.0 0.0 0.00 0.00 0.00 33 1010.4